| time (UTC) | temp F | wind direction | speed MPH | gust MPH | rain 1hr in | rain 24hr in | rain mn in | humidity % | barometer mb |
| 20260510043037 | 73 | 148 | 0.0 | 0.0 | 0.00 | 0.00 | 0.00 | 89 | 1011.4 |
| 20260510041537 | 74 | 149 | 0.0 | 2.0 | 0.00 | 0.00 | 0.00 | 89 | 1011.3 |
| 20260510040037 | 73 | 141 | 0.0 | 4.0 | 0.00 | 0.00 | 0.00 | 90 | 1011.3 |
| 20260510034537 | 72 | 141 | 0.0 | 3.0 | 0.00 | 0.00 | 0.00 | 94 | 1011.4 |
| 20260510033034 | 71 | 149 | 0.0 | 1.0 | 0.00 | 0.00 | 0.00 | 95 | 1011.6 |
| 20260510031536 | 70 | 46 | 0.0 | 1.0 | 0.00 | 0.00 | 0.00 | 95 | 1011.5 |
| 20260510030031 | 70 | 46 | 0.0 | 1.0 | 0.00 | 0.00 | 0.00 | 95 | 1011.2 |
| 20260510024529 | 70 | 281 | 0.0 | 0.0 | 0.00 | 0.00 | 0.00 | 95 | 1010.6 |
| 20260510023028 | 71 | 281 | 0.0 | 1.0 | 0.00 | 0.00 | 0.00 | 95 | 1010.4 |
| 20260510021535 | 71 | 281 | 0.0 | 0.0 | 0.00 | 0.00 | 0.00 | 95 | 1009.9 |
| 20260510020027 | 71 | 281 | 0.0 | 3.0 | 0.00 | 0.00 | 0.00 | 95 | 1009.3 |
| 20260510014526 | 70 | 170 | 0.0 | 0.0 | 0.00 | 0.00 | 0.00 | 94 | 1008.8 |
| 20260510013024 | 70 | 174 | 0.0 | 0.0 | 0.00 | 0.00 | 0.00 | 93 | 1008.6 |
| 20260510011524 | 71 | 174 | 0.0 | 0.0 | 0.00 | 0.00 | 0.00 | 93 | 1008.5 |
| 20260510010022 | 70 | 126 | 0.0 | 0.0 | 0.00 | 0.00 | 0.00 | 93 | 1008.6 |
| 20260510004521 | 70 | 195 | 0.0 | 0.0 | 0.00 | 0.00 | 0.00 | 91 | 1008.1 |
| 20260510003023 | 70 | 127 | 0.0 | 6.0 | 0.00 | 0.00 | 0.00 | 88 | 1008.2 |
| 20260510001518 | 68 | 143 | 1.0 | 2.0 | 0.00 | 0.00 | 0.00 | 90 | 1008.8 |
| 20260510000020 | 69 | 317 | 0.0 | 3.0 | 0.00 | 0.00 | 0.00 | 88 | 1009.4 |
| 20260509234513 | 72 | 262 | 2.0 | 6.0 | 0.00 | 0.00 | 0.00 | 78 | 1009.2 |
| 20260509233012 | 78 | 183 | 2.0 | 8.0 | 0.00 | 0.00 | 0.00 | 67 | 1008.1 |
| 20260509231510 | 85 | 159 | 1.0 | 4.0 | 0.00 | 0.00 | 0.00 | 70 | 1008.0 |
| 20260509230010 | 86 | 124 | 0.0 | 1.0 | 0.00 | 0.00 | 0.00 | 69 | 1007.7 |
| 20260509224509 | 87 | 127 | 0.0 | 1.0 | 0.00 | 0.00 | 0.00 | 66 | 1007.4 |
| 20260509223008 | 87 | 98 | 0.0 | 1.0 | 0.00 | 0.00 | 0.00 | 64 | 1007.5 |
| 20260509221510 | 88 | 89 | 0.0 | 2.0 | 0.00 | 0.00 | 0.00 | 66 | 1007.3 |
| 20260509220009 | 88 | 141 | 0.0 | 3.0 | 0.00 | 0.00 | 0.00 | 66 | 1007.4 |
| 20260509214507 | 92 | 44 | 0.0 | 3.0 | 0.00 | 0.00 | 0.00 | 62 | 1007.4 |
| 20260509213007 | 92 | 131 | 0.0 | 2.0 | 0.00 | 0.00 | 0.00 | 66 | 1007.4 |
| 20260509211511 | 91 | 38 | 1.0 | 6.0 | 0.00 | 0.00 | 0.00 | 62 | 1007.4 |
| 20260509210007 | 91 | 128 | 0.0 | 2.0 | 0.00 | 0.00 | 0.00 | 67 | 1007.7 |
| 20260509204601 | 91 | 7 | 0.0 | 3.0 | 0.00 | 0.00 | 0.00 | 62 | 1008.0 |
| 20260509203056 | 91 | 106 | 0.0 | 4.0 | 0.00 | 0.00 | 0.00 | 63 | 1008.0 |
| 20260509201600 | 90 | 137 | 0.0 | 5.0 | 0.00 | 0.00 | 0.00 | 64 | 1008.2 |
| 20260509194550 | 90 | 331 | 1.0 | 3.0 | 0.00 | 0.00 | 0.00 | 66 | 1008.6 |
| 20260509193047 | 89 | 307 | 0.0 | 3.0 | 0.00 | 0.00 | 0.00 | 66 | 1008.6 |
| 20260509191545 | 88 | 300 | 0.0 | 4.0 | 0.00 | 0.00 | 0.00 | 68 | 1008.6 |
| 20260509190051 | 87 | 317 | 0.0 | 5.0 | 0.00 | 0.00 | 0.00 | 71 | 1008.7 |
| 20260509184541 | 87 | 267 | 0.0 | 2.0 | 0.00 | 0.00 | 0.00 | 73 | 1008.9 |
| 20260509183040 | 87 | 133 | 1.0 | 4.0 | 0.00 | 0.00 | 0.00 | 72 | 1009.2 |
| 20260509181540 | 86 | 175 | 0.0 | 4.0 | 0.00 | 0.00 | 0.00 | 73 | 1009.3 |
| 20260509180039 | 87 | 247 | 0.0 | 5.0 | 0.00 | 0.00 | 0.00 | 74 | 1009.8 |
| 20260509174536 | 86 | 110 | 1.0 | 3.0 | 0.00 | 0.00 | 0.00 | 76 | 1010.0 |
| 20260509173033 | 85 | 162 | 2.0 | 6.0 | 0.00 | 0.00 | 0.00 | 75 | 1010.1 |
| 20260509171536 | 84 | 135 | 0.0 | 3.0 | 0.00 | 0.00 | 0.00 | 83 | 1010.3 |
| 20260509170030 | 82 | 184 | 0.0 | 3.0 | 0.00 | 0.00 | 0.00 | 86 | 1010.5 |
| 20260509164523 | 80 | 134 | 0.0 | 2.0 | 0.00 | 0.00 | 0.00 | 93 | 1010.5 |
| 20260509163024 | 78 | 101 | 0.0 | 2.0 | 0.00 | 0.00 | 0.00 | 96 | 1010.6 |
| 20260509161515 | 77 | 103 | 0.0 | 1.0 | 0.00 | 0.00 | 0.00 | 97 | 1010.4 |
| 20260509160014 | 77 | 316 | 0.0 | 3.0 | 0.00 | 0.00 | 0.00 | 98 | 1010.4 |
| 20260509154517 | 76 | 155 | 0.0 | 0.0 | 0.00 | 0.00 | 0.00 | 98 | 1010.4 |
| 20260509153010 | 76 | 159 | 0.0 | 0.0 | 0.00 | 0.00 | 0.00 | 98 | 1010.3 |
| 20260509151509 | 75 | 159 | 0.0 | 1.0 | 0.00 | 0.00 | 0.00 | 98 | 1010.5 |
| 20260509150016 | 75 | 230 | 0.0 | 2.0 | 0.00 | 0.00 | 0.00 | 98 | 1010.2 |
| 20260509144506 | 75 | 154 | 0.0 | 0.0 | 0.00 | 0.00 | 0.00 | 98 | 1010.1 |
| 20260509143005 | 74 | 154 | 0.0 | 0.0 | 0.00 | 0.00 | 0.00 | 98 | 1009.8 |
| 20260509141508 | 75 | 160 | 0.0 | 1.0 | 0.00 | 0.00 | 0.00 | 98 | 1009.5 |
| 20260509140003 | 74 | 125 | 0.0 | 1.0 | 0.00 | 0.00 | 0.00 | 98 | 1009.2 |
| 20260509134508 | 74 | 115 | 0.0 | 1.0 | 0.00 | 0.00 | 0.00 | 98 | 1009.8 |
| 20260509133002 | 74 | 151 | 1.0 | 2.0 | 0.00 | 0.00 | 0.00 | 98 | 1010.3 |
| 20260509131502 | 74 | 167 | 0.0 | 3.0 | 0.00 | 0.00 | 0.00 | 98 | 1010.4 |
| 20260509130001 | 74 | 134 | 0.0 | 1.0 | 0.00 | 0.00 | 0.00 | 99 | 1010.9 |
| 20260509124601 | 74 | 134 | 0.0 | 1.0 | 0.00 | 0.00 | 0.00 | 99 | 1010.1 |
| 20260509123058 | 74 | 138 | 0.0 | 1.0 | 0.00 | 0.00 | 0.00 | 98 | 1010.5 |
| 20260509121557 | 74 | 140 | 0.0 | 0.0 | 0.00 | 0.00 | 0.00 | 98 | 1010.3 |
| 20260509120056 | 73 | 140 | 0.0 | 0.0 | 0.00 | 0.00 | 0.00 | 98 | 1010.3 |
| 20260509114556 | 73 | 140 | 0.0 | 1.0 | 0.00 | 0.00 | 0.00 | 98 | 1010.1 |
| 20260509113057 | 73 | 140 | 0.0 | 0.0 | 0.00 | 0.00 | 0.00 | 98 | 1010.0 |
| 20260509111552 | 73 | 140 | 0.0 | 0.0 | 0.00 | 0.00 | 0.00 | 98 | 1009.7 |
| 20260509110052 | 73 | 140 | 0.0 | 0.0 | 0.00 | 0.00 | 0.00 | 98 | 1009.8 |
| 20260509104552 | 73 | 140 | 0.0 | 0.0 | 0.00 | 0.00 | 0.00 | 98 | 1009.4 |
| 20260509103053 | 73 | 140 | 0.0 | 0.0 | 0.00 | 0.00 | 0.00 | 98 | 1009.5 |
| 20260509101554 | 73 | 140 | 0.0 | 0.0 | 0.00 | 0.00 | 0.00 | 98 | 1009.7 |
| 20260509100049 | 73 | 140 | 0.0 | 0.0 | 0.00 | 0.00 | 0.00 | 98 | 1009.6 |
| 20260509094549 | 74 | 139 | 0.0 | 0.0 | 0.00 | 0.00 | 0.00 | 98 | 1009.1 |
| 20260509093047 | 74 | 140 | 0.0 | 0.0 | 0.00 | 0.00 | 0.00 | 98 | 1009.0 |
| 20260509091550 | 74 | 140 | 0.0 | 0.0 | 0.00 | 0.00 | 0.00 | 98 | 1009.3 |
| 20260509090046 | 74 | 140 | 0.0 | 0.0 | 0.00 | 0.00 | 0.00 | 98 | 1009.6 |
| 20260509084549 | 74 | 140 | 0.0 | 0.0 | 0.00 | 0.00 | 0.00 | 98 | 1009.5 |
| 20260509083048 | 74 | 140 | 0.0 | 0.0 | 0.00 | 0.00 | 0.00 | 98 | 1009.3 |
| 20260509081549 | 74 | 140 | 0.0 | 0.0 | 0.00 | 0.00 | 0.00 | 97 | 1009.3 |
| 20260509080044 | 74 | 140 | 0.0 | 1.0 | 0.00 | 0.00 | 0.00 | 97 | 1009.2 |
| 20260509074553 | 74 | 165 | 0.0 | 3.0 | 0.00 | 0.00 | 0.00 | 97 | 1009.2 |
| 20260509073041 | 75 | 127 | 1.0 | 4.0 | 0.00 | 0.00 | 0.00 | 95 | 1009.1 |
| 20260509071537 | 75 | 144 | 0.0 | 3.0 | 0.00 | 0.00 | 0.00 | 95 | 1009.6 |
| 20260509070036 | 75 | 143 | 0.0 | 1.0 | 0.00 | 0.00 | 0.00 | 95 | 1009.7 |
| 20260509064544 | 74 | 160 | 0.0 | 0.0 | 0.00 | 0.00 | 0.00 | 95 | 1010.0 |
| 20260509063037 | 74 | 160 | 0.0 | 0.0 | 0.00 | 0.00 | 0.00 | 95 | 1009.8 |
| 20260509061535 | 74 | 160 | 0.0 | 1.0 | 0.00 | 0.00 | 0.00 | 95 | 1009.9 |
| 20260509060032 | 74 | 145 | 0.0 | 1.0 | 0.00 | 0.00 | 0.00 | 95 | 1009.9 |
| 20260509054535 | 74 | 178 | 0.0 | 2.0 | 0.00 | 0.00 | 0.00 | 94 | 1010.1 |
| 20260509053031 | 74 | 128 | 0.0 | 1.0 | 0.00 | 0.00 | 0.00 | 94 | 1010.0 |
| 20260509051534 | 74 | 91 | 0.0 | 1.0 | 0.00 | 0.00 | 0.00 | 94 | 1010.1 |
| 20260509050028 | 74 | 155 | 0.0 | 2.0 | 0.00 | 0.00 | 0.00 | 94 | 1010.1 |
| 20260509044528 | 74 | 119 | 0.0 | 1.0 | 0.00 | 0.00 | 0.00 | 94 | 1010.0 |